CW4086 Weather Reports


time (UTC)temp
F
wind
direction
speed
knots
gust
knots
rain 1hr
in
rain 24hr
in
rain mn
in
humidity
%
barometer
mb
20260905182604 84 275 2.6 5.2 0.00 0.00 0.00 21 1014.9
20260905181604 83 331 2.6 6.1 0.00 0.00 0.00 21 1015.0
20260905181104 82 319 1.7 6.1 0.00 0.00 0.00 24 1015.0
20260905180104 81 290 1.7 6.1 0.00 0.00 0.00 24 1015.0
20260905175604 81 303 3.5 5.2 0.00 0.00 0.00 23 1015.0
20260905175104 81 304 1.7 6.1 0.00 0.00 0.00 24 1015.0
20260905174104 80 280 1.7 5.2 0.00 0.00 0.00 23 1014.7
20260905173604 80 265 1.7 5.2 0.00 0.00 0.00 24 1014.7
20260905173104 79 301 2.6 5.2 0.00 0.00 0.00 25 1014.6
20260905172603 78 290 2.6 4.3 0.00 0.00 0.00 28 1014.6
20260905172103 78 291 2.6 5.2 0.00 0.00 0.00 26 1014.7
20260905171603 78 291 2.6 5.2 0.00 0.00 0.00 26 1014.6
20260905171107 78 301 1.7 4.3 0.00 0.00 0.00 26 1014.6
20260905170604 78 302 2.6 4.3 0.00 0.00 0.00 26 1014.7
20260905170108 77 302 1.7 4.3 0.00 0.00 0.00 26 1014.7
20260905165604 77 306 1.7 4.3 0.00 0.00 0.00 26 1014.7
20260905165104 76 307 2.6 4.3 0.00 0.00 0.00 26 1014.7
20260905164604 76 306 2.6 4.3 0.00 0.00 0.00 27 1014.7
20260905163604 75 296 1.7 4.3 0.00 0.00 0.00 29 1014.6
20260905163104 75 297 1.7 4.3 0.00 0.00 0.00 29 1014.6
20260905161103 73 314 1.7 2.6 0.00 0.00 0.00 32 1014.6
20260905160603 72 321 2.6 2.6 0.00 0.00 0.00 31 1014.6
20260905160110 72 34 0.9 2.6 0.00 0.00 0.00 32 1014.5
20260905155604 72 34 1.7 2.6 0.00 0.00 0.00 31 1014.5
20260905155104 72 34 0.9 2.6 0.00 0.00 0.00 32 1014.5
20260905154603 72 34 0.0 1.7 0.00 0.00 0.00 34 1014.5
20260905154104 71 34 0.0 2.6 0.00 0.00 0.00 35 1014.5
20260905153604 70 34 0.9 2.6 0.00 0.00 0.00 36 1014.4
20260905153104 70 34 0.9 1.7 0.00 0.00 0.00 32 1014.4
20260905152103 71 34 0.0 0.9 0.00 0.00 0.00 37 1014.2
20260905150604 71 34 0.0 0.9 0.00 0.00 0.00 39 1014.2
20260905150109 70 34 0.0 0.9 0.00 0.00 0.00 31 1014.2
20260905145604 69 34 0.0 1.7 0.00 0.00 0.00 32 1014.2
20260905145104 68 34 0.0 1.7 0.00 0.00 0.00 32 1014.2
20260905144104 66 34 0.9 1.7 0.00 0.00 0.00 32 1014.1
20260905143604 65 34 1.7 1.7 0.00 0.00 0.00 32 1014.1
20260905143104 65 34 0.9 2.6 0.00 0.00 0.00 33 1014.0
20260905142604 64 34 0.9 2.6 0.00 0.00 0.00 36 1013.9
20260905142104 63 34 0.9 1.7 0.00 0.00 0.00 37 1013.9
20260905141604 63 34 0.9 1.7 0.00 0.00 0.00 37 1013.8
20260905140604 63 20 0.0 1.7 0.00 0.00 0.00 36 1013.7
20260905140104 63 20 0.9 1.7 0.00 0.00 0.00 36 1013.7
20260905135604 63 20 0.0 1.7 0.00 0.00 0.00 35 1013.7
20260905135104 63 20 0.9 2.6 0.00 0.00 0.00 35 1013.7
20260905134604 63 20 1.7 2.6 0.00 0.00 0.00 34 1013.7
20260905134104 63 19 0.9 1.7 0.00 0.00 0.00 35 1013.7
20260905133605 63 19 0.9 1.7 0.00 0.00 0.00 36 1013.7
20260905132604 63 19 0.9 1.7 0.00 0.00 0.00 35 1013.6
20260905132104 63 19 1.7 1.7 0.00 0.00 0.00 35 1013.6
20260905131604 63 19 1.7 1.7 0.00 0.00 0.00 36 1013.6
20260905131107 63 19 0.9 1.7 0.00 0.00 0.00 36 1013.7
20260905130605 63 19 0.9 1.7 0.00 0.00 0.00 36 1013.7
20260905130106 62 19 0.0 1.7 0.00 0.00 0.00 38 1013.8
20260905125604 62 19 0.9 1.7 0.00 0.00 0.00 37 1013.7
20260905125104 62 19 0.9 1.7 0.00 0.00 0.00 37 1013.7
20260905124604 62 19 0.0 1.7 0.00 0.00 0.00 36 1013.6
20260905124104 63 19 0.9 1.7 0.00 0.00 0.00 37 1013.5
20260905123604 63 19 0.9 1.7 0.00 0.00 0.00 37 1013.3
20260905123104 64 19 0.0 1.7 0.00 0.00 0.00 35 1013.3
20260905122604 64 19 0.9 1.7 0.00 0.00 0.00 36 1013.3
20260905122104 63 19 1.7 1.7 0.00 0.00 0.00 37 1013.3
20260905121104 63 19 1.7 2.6 0.00 0.00 0.00 38 1013.3
20260905120108 62 19 0.9 2.6 0.00 0.00 0.00 39 1013.3
20260905115604 62 19 0.9 2.6 0.00 0.00 0.00 39 1013.3
20260905115103 62 19 0.9 1.7 0.00 0.00 0.00 40 1013.3
20260905114603 62 19 0.9 1.7 0.00 0.00 0.00 39 1013.3
20260905113605 62 19 1.7 1.7 0.00 0.00 0.00 40 1013.2
20260905113104 62 19 0.9 1.7 0.00 0.00 0.00 40 1013.3
20260905112604 62 19 0.9 1.7 0.00 0.00 0.00 40 1013.3
20260905112104 62 19 0.9 1.7 0.00 0.00 0.00 40 1013.3
20260905111604 62 19 0.9 1.7 0.00 0.00 0.00 41 1013.3
20260905111107 62 19 0.9 1.7 0.00 0.00 0.00 40 1013.4
20260905110107 63 19 0.0 1.7 0.00 0.00 0.00 40 1013.4
20260905105604 63 19 0.9 1.7 0.00 0.00 0.00 41 1013.5
20260905105104 62 19 0.9 1.7 0.00 0.00 0.00 41 1013.6
20260905104604 62 19 0.9 1.7 0.00 0.00 0.00 41 1013.7
20260905104103 62 19 0.9 1.7 0.00 0.00 0.00 42 1013.7
20260905103604 63 19 0.9 1.7 0.00 0.00 0.00 42 1013.7
20260905103104 63 19 0.9 1.7 0.00 0.00 0.00 41 1013.7
20260905102603 63 19 0.9 1.7 0.00 0.00 0.00 41 1013.7
20260905102104 63 19 0.9 1.7 0.00 0.00 0.00 40 1013.7
20260905101104 63 19 1.7 1.7 0.00 0.00 0.00 41 1013.7
20260905100604 63 19 0.9 1.7 0.00 0.00 0.00 41 1013.7
20260905100104 63 19 0.9 1.7 0.00 0.00 0.00 41 1013.7
20260905095604 63 19 0.9 1.7 0.00 0.00 0.00 41 1013.7
20260905095104 63 19 0.9 1.7 0.00 0.00 0.00 41 1013.7
20260905094604 63 19 0.9 1.7 0.00 0.00 0.00 41 1013.7
20260905094104 63 19 0.9 1.7 0.00 0.00 0.00 41 1013.7
20260905093603 64 19 0.9 1.7 0.00 0.00 0.00 41 1013.7
20260905093103 64 19 0.9 1.7 0.00 0.00 0.00 41 1013.7
20260905092104 64 19 0.9 1.7 0.00 0.00 0.00 40 1013.7
20260905091604 64 19 0.9 1.7 0.00 0.00 0.00 39 1013.7
20260905091107 65 19 0.9 2.6 0.00 0.00 0.00 39 1013.7
20260905090604 65 19 0.9 2.6 0.00 0.00 0.00 38 1013.8
20260905090106 65 19 0.9 1.7 0.00 0.00 0.00 38 1013.7
20260905085604 64 19 0.9 1.7 0.00 0.00 0.00 39 1013.8
20260905085104 65 19 0.9 1.7 0.00 0.00 0.00 39 1013.8
20260905084604 65 19 0.9 1.7 0.00 0.00 0.00 39 1013.8
20260905084104 65 19 0.9 2.6 0.00 0.00 0.00 39 1013.8
20260905083603 65 19 0.9 2.6 0.00 0.00 0.00 38 1013.8
20260905083104 66 322 1.7 2.6 0.00 0.00 0.00 37 1013.9
20260905082604 66 284 1.7 2.6 0.00 0.00 0.00 37 1014.1
20260905082104 65 284 0.9 2.6 0.00 0.00 0.00 38 1014.2
20260905081603 65 284 1.7 2.6 0.00 0.00 0.00 38 1014.3
20260905081103 65 284 0.9 1.7 0.00 0.00 0.00 39 1014.3
20260905080604 65 284 0.9 1.7 0.00 0.00 0.00 38 1014.3
20260905080104 65 284 0.9 1.7 0.00 0.00 0.00 38 1014.3
20260905075604 65 284 0.9 1.7 0.00 0.00 0.00 38 1014.3
20260905075104 65 284 0.9 1.7 0.00 0.00 0.00 39 1014.3
20260905074604 65 284 0.9 1.7 0.00 0.00 0.00 38 1014.3
20260905074105 65 284 0.9 1.7 0.00 0.00 0.00 38 1014.3
20260905073604 66 284 0.9 1.7 0.00 0.00 0.00 38 1014.3
20260905073103 66 284 0.9 1.7 0.00 0.00 0.00 38 1014.3
20260905072104 66 284 0.0 0.9 0.00 0.00 0.00 38 1014.3
20260905071106 66 284 0.0 0.9 0.00 0.00 0.00 38 1014.3
20260905070604 66 284 0.0 0.9 0.00 0.00 0.00 38 1014.3
20260905070106 66 284 0.0 0.9 0.00 0.00 0.00 38 1014.2
20260905064104 66 284 0.9 2.6 0.00 0.00 0.00 38 1013.9
20260905063604 66 284 0.9 1.7 0.00 0.00 0.00 37 1014.1
20260905063104 66 284 0.9 1.7 0.00 0.00 0.00 37 1014.2
20260905062604 66 284 0.9 1.7 0.00 0.00 0.00 36 1014.2
20260905062104 67 284 0.0 1.7 0.00 0.00 0.00 36 1014.1
20260905061604 67 284 0.9 1.7 0.00 0.00 0.00 36 1014.1
20260905061104 67 284 0.9 1.7 0.00 0.00 0.00 36 1014.0
20260905060604 67 284 0.9 1.7 0.00 0.00 0.00 36 1014.1
20260905060104 67 284 0.9 1.7 0.00 0.00 0.00 36 1014.0
20260905055604 68 284 0.9 1.7 0.00 0.00 0.00 35 1014.0
20260905055104 68 284 0.0 1.7 0.00 0.00 0.00 35 1013.9
20260905054103 68 283 0.9 1.7 0.00 0.00 0.00 34 1013.9
20260905053603 69 283 0.0 1.7 0.00 0.00 0.00 34 1014.1
20260905053104 69 283 0.9 1.7 0.00 0.00 0.00 33 1014.1
20260905052104 69 283 0.9 1.7 0.00 0.00 0.00 32 1014.1
20260905051105 69 283 0.9 1.7 0.00 0.00 0.00 32 1014.1
20260905050603 70 283 0.9 1.7 0.00 0.00 0.00 31 1014.2
20260905045604 70 281 1.7 2.6 0.00 0.00 0.00 31 1014.2
20260905045103 70 281 0.9 2.6 0.00 0.00 0.00 31 1014.1
20260905044603 70 279 1.7 2.6 0.00 0.00 0.00 29 1014.2
20260905044105 71 278 0.9 2.6 0.00 0.00 0.00 29 1014.1
20260905043104 71 277 1.7 2.6 0.00 0.00 0.00 28 1014.0
20260905042604 71 277 0.9 1.7 0.00 0.00 0.00 28 1014.0
20260905042106 71 277 0.9 1.7 0.00 0.00 0.00 27 1014.0
20260905041604 71 277 0.9 1.7 0.00 0.00 0.00 27 1013.9
20260905040604 71 277 0.9 1.7 0.00 0.00 0.00 26 1013.9
20260905040108 71 277 0.0 0.9 0.00 0.00 0.00 27 1013.9
20260905035604 72 277 0.0 0.9 0.00 0.00 0.00 27 1013.9
20260905035104 72 277 0.0 0.9 0.00 0.00 0.00 27 1013.9
20260905034604 72 277 0.0 0.9 0.00 0.00 0.00 28 1013.8
20260905034104 72 277 0.0 0.0 0.00 0.00 0.00 31 1013.8
20260905033604 72 277 0.0 0.9 0.00 0.00 0.00 32 1013.8
20260905033105 73 277 0.0 1.7 0.00 0.00 0.00 31 1013.7
20260905032104 73 277 0.9 1.7 0.00 0.00 0.00 31 1013.4
20260905031104 73 276 0.0 1.7 0.00 0.00 0.00 31 1013.3
20260905030603 73 276 0.0 1.7 0.00 0.00 0.00 31 1013.3
20260905030108 73 276 0.0 0.9 0.00 0.00 0.00 30 1013.3
20260905025604 74 276 0.0 0.9 0.00 0.00 0.00 31 1013.2
20260905025103 74 276 0.0 2.6 0.00 0.00 0.00 30 1013.1
20260905024603 74 276 0.9 2.6 0.00 0.00 0.00 30 1012.8
20260905024104 75 278 0.0 1.7 0.00 0.00 0.00 30 1012.8
20260905023103 75 279 0.0 0.9 0.00 0.00 0.00 29 1012.8
20260905022604 76 279 0.0 0.9 0.00 0.00 0.00 30 1012.8
20260905021604 76 279 0.0 2.6 0.00 0.00 0.00 29 1012.7
20260905020604 77 280 0.9 4.3 0.00 0.00 0.00 30 1012.7
20260905020108 78 286 0.9 4.3 0.00 0.00 0.00 30 1012.7
20260905015604 78 288 0.9 4.3 0.00 0.00 0.00 30 1012.7
20260905014604 79 281 2.6 5.2 0.00 0.00 0.00 29 1012.7
20260905014104 80 282 2.6 5.2 0.00 0.00 0.00 29 1012.7
20260905013604 80 268 2.6 6.1 0.00 0.00 0.00 28 1012.7
20260905013103 81 269 2.6 6.1 0.00 0.00 0.00 27 1012.7
20260905012603 81 278 3.5 6.1 0.00 0.00 0.00 28 1012.7
20260905012104 82 286 3.5 5.2 0.00 0.00 0.00 28 1012.7
20260905011103 82 267 2.6 5.2 0.00 0.00 0.00 27 1012.7
20260905010107 82 228 1.7 7.8 0.00 0.00 0.00 27 1012.7
20260905005603 83 234 2.6 7.8 0.00 0.00 0.00 27 1012.7
20260905005104 83 229 3.5 8.7 0.00 0.00 0.00 26 1012.7
20260905004603 83 239 4.3 8.7 0.00 0.00 0.00 25 1012.7
20260905004104 84 213 3.5 7.8 0.00 0.00 0.00 26 1012.7
20260905003603 84 246 5.2 8.7 0.00 0.00 0.00 25 1012.7
20260905003104 84 253 5.2 8.7 0.00 0.00 0.00 25 1012.6
20260905002604 84 242 4.3 7.8 0.00 0.00 0.00 25 1012.6
20260905002103 84 246 4.3 7.0 0.00 0.00 0.00 25 1012.4
20260905001603 84 253 4.3 8.7 0.00 0.00 0.00 25 1012.4
20260905001104 83 271 5.2 8.7 0.00 0.00 0.00 26 1012.3
20260905000111 84 280 5.2 10.4 0.00 0.00 0.00 26 1012.4
20260904235604 84 256 6.1 10.4 0.00 0.00 0.00 25 1012.5
20260904235104 85 263 5.2 10.4 0.00 0.00 0.00 25 1012.4
20260904234604 85 268 5.2 8.7 0.00 0.00 0.00 25 1012.3
20260904234104 85 257 4.3 8.7 0.00 0.00 0.00 25 1012.3
20260904233604 85 265 4.3 10.4 0.00 0.00 0.00 25 1012.4
20260904232604 84 273 6.1 10.4 0.00 0.00 0.00 26 1012.4
20260904232105 84 249 4.3 12.2 0.00 0.00 0.00 26 1012.4
20260904231104 84 259 7.8 11.3 0.00 0.00 0.00 27 1012.5
20260904230604 85 265 5.2 10.4 0.00 0.00 0.00 27 1012.4
20260904230108 84 288 6.1 10.4 0.00 0.00 0.00 27 1012.4
20260904225604 85 266 7.0 10.4 0.00 0.00 0.00 27 1012.4
20260904225104 85 273 6.1 10.4 0.00 0.00 0.00 27 1012.4
20260904224604 85 280 6.1 11.3 0.00 0.00 0.00 27 1012.3
20260904223604 85 278 5.2 10.4 0.00 0.00 0.00 26 1012.5
20260904223104 85 289 6.1 10.4 0.00 0.00 0.00 26 1012.6
20260904222603 85 271 5.2 10.4 0.00 0.00 0.00 26 1012.7
20260904221604 85 288 5.2 12.2 0.00 0.00 0.00 26 1012.7
20260904220604 85 280 7.8 12.2 0.00 0.00 0.00 25 1012.7
20260904220105 85 277 5.2 12.2 0.00 0.00 0.00 25 1012.7
20260904215104 85 294 5.2 12.2 0.00 0.00 0.00 26 1012.7
20260904213104 84 267 4.3 8.7 0.00 0.00 0.00 25 1012.9
20260904212606 84 269 4.3 7.8 0.00 0.00 0.00 24 1013.0
20260904212104 84 261 4.3 8.7 0.00 0.00 0.00 24 1012.9
20260904211606 83 277 5.2 11.3 0.00 0.00 0.00 25 1012.9
20260904211106 83 288 6.1 11.3 0.00 0.00 0.00 24 1013.0
20260904210604 84 271 5.2 8.7 0.00 0.00 0.00 24 1013.1
20260904210107 84 275 4.3 7.8 0.00 0.00 0.00 25 1013.1
20260904205606 83 287 2.6 7.0 0.00 0.00 0.00 25 1013.1
20260904205104 83 267 4.3 7.0 0.00 0.00 0.00 26 1013.1
20260904204604 83 280 3.5 8.7 0.00 0.00 0.00 26 1013.1
20260904204104 82 292 6.1 8.7 0.00 0.00 0.00 27 1013.2
20260904203603 82 271 5.2 7.8 0.00 0.00 0.00 27 1013.1
20260904203104 82 282 4.3 7.8 0.00 0.00 0.00 28 1013.1
20260904202604 82 267 4.3 7.0 0.00 0.00 0.00 29 1013.1
20260904202104 82 296 2.6 7.0 0.00 0.00 0.00 29 1013.2
20260904201604 81 331 2.6 7.8 0.00 0.00 0.00 29 1013.2
20260904201104 81 287 5.2 10.4 0.00 0.00 0.00 30 1013.2
20260904195604 80 282 5.2 10.4 0.00 0.00 0.00 32 1013.3
20260904195104 79 232 2.6 10.4 0.00 0.00 0.00 31 1013.3
20260904194104 79 270 2.6 7.8 0.00 0.00 0.00 33 1013.4
20260904193605 79 301 4.3 8.7 0.00 0.00 0.00 34 1013.4
20260904192604 78 306 4.3 7.0 0.00 0.00 0.00 36 1013.7
20260904192104 78 289 2.6 7.8 0.00 0.00 0.00 38 1013.7
20260904191605 77 276 4.3 7.8 0.00 0.00 0.00 40 1013.8
20260904191104 76 280 1.7 7.0 0.00 0.00 0.00 39 1013.8
20260904190606 76 278 2.6 6.1 0.00 0.00 0.00 42 1013.8
20260904185604 76 320 2.6 10.4 0.00 0.00 0.00 44 1013.8
20260904185104 76 285 5.2 10.4 0.00 0.00 0.00 46 1013.9
20260904184604 75 283 3.5 7.0 0.00 0.00 0.00 47 1013.9
20260904184104 75 296 2.6 7.0 0.00 0.00 0.00 47 1014.0
20260904183604 75 265 4.3 7.0 0.00 0.00 0.00 48 1014.0
20260904183104 74 310 2.6 6.1 0.00 0.00 0.00 48 1014.0